| time (UTC) | temp F | wind direction | speed knots | gust knots | rain 1hr in | rain 24hr in | rain mn in | humidity % | barometer mb |
| 20260504045813 | 60 | 187 | 1.7 | 6.1 | 0.00 | 0.00 | 0.00 | 69 | 1013.4 |
| 20260504044831 | 60 | 176 | 4.3 | 7.0 | 0.00 | 0.00 | 0.00 | 68 | 1013.3 |
| 20260504043809 | 61 | 197 | 2.6 | 5.2 | 0.00 | 0.00 | 0.00 | 68 | 1013.2 |
| 20260504042807 | 61 | 241 | 0.9 | 6.1 | 0.00 | 0.00 | 0.00 | 68 | 1013.0 |
| 20260504041804 | 61 | 141 | 2.6 | 7.8 | 0.00 | 0.00 | 0.00 | 67 | 1012.9 |
| 20260504040804 | 62 | 214 | 1.7 | 9.6 | 0.00 | 0.00 | 0.00 | 66 | 1012.9 |
| 20260504035839 | 62 | 252 | 2.6 | 8.7 | 0.00 | 0.00 | 0.00 | 66 | 1012.7 |
| 20260504034818 | 62 | 214 | 5.2 | 10.4 | 0.00 | 0.00 | 0.00 | 65 | 1012.6 |
| 20260504033819 | 62 | 203 | 3.5 | 7.8 | 0.00 | 0.00 | 0.00 | 65 | 1012.6 |
| 20260504032814 | 62 | 172 | 3.5 | 11.3 | 0.00 | 0.00 | 0.00 | 64 | 1012.5 |
| 20260504031815 | 63 | 208 | 1.7 | 9.6 | 0.00 | 0.00 | 0.00 | 64 | 1012.4 |
| 20260504030816 | 63 | 201 | 2.6 | 7.8 | 0.00 | 0.00 | 0.00 | 63 | 1012.3 |
| 20260504025811 | 64 | 224 | 3.5 | 8.7 | 0.00 | 0.00 | 0.00 | 62 | 1012.2 |
| 20260504024809 | 64 | 159 | 2.6 | 8.7 | 0.00 | 0.00 | 0.00 | 60 | 1011.9 |
| 20260504023808 | 65 | 182 | 4.3 | 9.6 | 0.00 | 0.00 | 0.00 | 59 | 1011.9 |
| 20260504022824 | 65 | 193 | 3.5 | 9.6 | 0.00 | 0.00 | 0.00 | 59 | 1011.8 |
| 20260504021822 | 66 | 208 | 3.5 | 9.6 | 0.00 | 0.00 | 0.00 | 58 | 1011.9 |
| 20260504020804 | 66 | 212 | 3.5 | 8.7 | 0.00 | 0.00 | 0.00 | 57 | 1011.6 |
| 20260504015816 | 67 | 192 | 1.7 | 7.0 | 0.00 | 0.00 | 0.00 | 56 | 1011.7 |
| 20260504014815 | 68 | 228 | 1.7 | 10.4 | 0.00 | 0.00 | 0.00 | 56 | 1011.8 |
| 20260504013836 | 68 | 260 | 4.3 | 11.3 | 0.00 | 0.00 | 0.00 | 55 | 1011.6 |
| 20260504012808 | 68 | 196 | 4.3 | 13.0 | 0.00 | 0.00 | 0.00 | 54 | 1011.4 |
| 20260504011828 | 69 | 260 | 5.2 | 8.7 | 0.00 | 0.00 | 0.00 | 53 | 1011.3 |
| 20260504010806 | 70 | 260 | 1.7 | 8.7 | 0.00 | 0.00 | 0.00 | 52 | 1011.4 |
| 20260504005821 | 70 | 228 | 3.5 | 9.6 | 0.00 | 0.00 | 0.00 | 53 | 1011.4 |
| 20260504004803 | 69 | 238 | 2.6 | 7.8 | 0.00 | 0.00 | 0.00 | 53 | 1011.3 |
| 20260504003822 | 69 | 238 | 5.2 | 10.4 | 0.00 | 0.00 | 0.00 | 53 | 1011.4 |
| 20260504002838 | 69 | 238 | 4.3 | 9.6 | 0.00 | 0.00 | 0.00 | 53 | 1011.3 |
| 20260504001817 | 69 | 239 | 3.5 | 9.6 | 0.00 | 0.00 | 0.00 | 53 | 1011.3 |
| 20260504000814 | 70 | 162 | 3.5 | 11.3 | 0.00 | 0.00 | 0.00 | 54 | 1011.3 |
| 20260503235811 | 70 | 203 | 3.5 | 7.8 | 0.00 | 0.00 | 0.00 | 54 | 1011.4 |
| 20260503234804 | 69 | 193 | 0.9 | 5.2 | 0.00 | 0.00 | 0.00 | 55 | 1011.5 |
| 20260503233804 | 68 | 137 | 2.6 | 7.0 | 0.00 | 0.00 | 0.00 | 57 | 1011.7 |
| 20260503232820 | 68 | 167 | 2.6 | 4.3 | 0.00 | 0.00 | 0.00 | 56 | 1012.0 |
| 20260503231819 | 68 | 239 | 1.7 | 7.8 | 0.00 | 0.00 | 0.00 | 58 | 1012.0 |
| 20260503230820 | 68 | 224 | 1.7 | 6.1 | 0.00 | 0.00 | 0.00 | 58 | 1012.0 |
| 20260503225814 | 67 | 89 | 3.5 | 6.1 | 0.00 | 0.00 | 0.00 | 58 | 1012.1 |
| 20260503224817 | 68 | 229 | 2.6 | 8.7 | 0.00 | 0.00 | 0.00 | 58 | 1011.9 |
| 20260503223817 | 67 | 169 | 2.6 | 6.1 | 0.00 | 0.00 | 0.00 | 60 | 1012.0 |
| 20260503222815 | 66 | 123 | 2.6 | 9.6 | 0.00 | 0.00 | 0.00 | 59 | 1012.0 |
| 20260503221816 | 67 | 189 | 5.2 | 9.6 | 0.00 | 0.00 | 0.00 | 59 | 1012.0 |
| 20260503220813 | 67 | 187 | 3.5 | 9.6 | 0.00 | 0.00 | 0.00 | 59 | 1011.9 |
| 20260503215812 | 67 | 166 | 5.2 | 10.4 | 0.00 | 0.00 | 0.00 | 59 | 1011.9 |
| 20260503214816 | 67 | 197 | 3.5 | 9.6 | 0.00 | 0.00 | 0.00 | 60 | 1011.9 |
| 20260503213817 | 67 | 149 | 2.6 | 8.7 | 0.00 | 0.00 | 0.00 | 59 | 1011.9 |
| 20260503212811 | 66 | 185 | 3.5 | 9.6 | 0.00 | 0.00 | 0.00 | 60 | 1012.1 |
| 20260503211810 | 66 | 163 | 5.2 | 10.4 | 0.00 | 0.00 | 0.00 | 58 | 1012.0 |
| 20260503210810 | 66 | 245 | 4.3 | 10.4 | 0.00 | 0.00 | 0.00 | 60 | 1012.0 |
| 20260503205808 | 67 | 170 | 3.5 | 9.6 | 0.00 | 0.00 | 0.00 | 60 | 1012.1 |
| 20260503204828 | 67 | 231 | 3.5 | 13.9 | 0.00 | 0.00 | 0.00 | 59 | 1012.1 |
| 20260503203821 | 67 | 168 | 6.1 | 11.3 | 0.00 | 0.00 | 0.00 | 57 | 1012.2 |
| 20260503202821 | 66 | 243 | 4.3 | 10.4 | 0.00 | 0.00 | 0.00 | 59 | 1012.2 |
| 20260503201804 | 66 | 265 | 5.2 | 9.6 | 0.00 | 0.00 | 0.00 | 59 | 1012.4 |
| 20260503200806 | 66 | 220 | 3.5 | 9.6 | 0.00 | 0.00 | 0.00 | 61 | 1012.4 |
| 20260503195821 | 66 | 199 | 2.6 | 10.4 | 0.00 | 0.00 | 0.00 | 61 | 1012.6 |
| 20260503194804 | 65 | 224 | 2.6 | 7.8 | 0.00 | 0.00 | 0.00 | 62 | 1012.6 |
| 20260503193804 | 65 | 127 | 3.5 | 8.7 | 0.00 | 0.00 | 0.00 | 61 | 1012.7 |
| 20260503192820 | 65 | 132 | 7.0 | 10.4 | 0.00 | 0.00 | 0.00 | 60 | 1012.8 |
| 20260503191839 | 66 | 303 | 2.6 | 9.6 | 0.00 | 0.00 | 0.00 | 61 | 1012.7 |
| 20260503190821 | 66 | 202 | 7.0 | 13.0 | 0.00 | 0.00 | 0.00 | 60 | 1012.8 |
| 20260503185811 | 66 | 132 | 3.5 | 13.0 | 0.00 | 0.00 | 0.00 | 62 | 1012.9 |
| 20260503184812 | 66 | 260 | 5.2 | 10.4 | 0.00 | 0.00 | 0.00 | 62 | 1012.9 |
| 20260503183810 | 65 | 247 | 5.2 | 9.6 | 0.00 | 0.00 | 0.00 | 63 | 1013.0 |
| 20260503182806 | 64 | 153 | 6.1 | 11.3 | 0.00 | 0.00 | 0.00 | 63 | 1012.9 |
| 20260503181821 | 63 | 164 | 6.1 | 10.4 | 0.00 | 0.00 | 0.00 | 67 | 1012.8 |
| 20260503180821 | 62 | 205 | 3.5 | 10.4 | 0.00 | 0.00 | 0.00 | 68 | 1012.7 |
| 20260503175839 | 62 | 178 | 6.1 | 12.2 | 0.00 | 0.00 | 0.00 | 67 | 1012.8 |
| 20260503174820 | 62 | 213 | 4.3 | 12.2 | 0.00 | 0.00 | 0.00 | 70 | 1012.9 |
| 20260503173802 | 61 | 171 | 4.3 | 13.0 | 0.00 | 0.00 | 0.00 | 71 | 1012.9 |
| 20260503172842 | 61 | 185 | 8.7 | 13.0 | 0.00 | 0.00 | 0.00 | 69 | 1012.9 |
| 20260503171816 | 61 | 203 | 6.1 | 10.4 | 0.00 | 0.00 | 0.00 | 71 | 1012.7 |
| 20260503170819 | 61 | 177 | 4.3 | 8.7 | 0.00 | 0.00 | 0.00 | 72 | 1012.6 |
| 20260503150807 | 56 | 135 | 3.5 | 10.4 | 0.00 | 0.00 | 0.00 | 82 | 1011.7 |
| 20260503130839 | 53 | 114 | 4.3 | 10.4 | 0.00 | 0.00 | 0.00 | 85 | 1010.2 |
| 20260503110808 | 54 | 126 | 3.5 | 7.0 | 0.00 | 0.00 | 0.00 | 85 | 1010.1 |
| 20260503080812 | 56 | 155 | 1.7 | 3.5 | 0.00 | 0.00 | 0.00 | 81 | 1010.6 |